Wednesday, June 20, 2018, 10:51 AM EDT
Back to Local

KPOU, Poughkeepsie Dutchess Cty

Location: Wappingers Falls, NY, United States Lat: 41.633
Local Time: 10:51 AM EDT (14:51 GMT) Lon: -73.883
Time Zone: US/Eastern Elev: 167 ft

Show me the last for .
Show Decoded

2018-06-20 09:53 METAR KPOU 201353Z 00000KT 10SM CLR 21/14 A2990 RMK AO2 SLP121 T02060139 =
2018-06-20 08:53 METAR KPOU 201253Z 00000KT 10SM CLR 19/13 A2992 RMK AO2 SLP128 T01890133 =
2018-06-20 07:53 METAR KPOU 201153Z 00000KT 10SM CLR 18/13 A2992 RMK AO2 SLP128 T01830133 10183
                 20144 51009 =
2018-06-20 06:53 METAR KPOU 201053Z 00000KT 10SM CLR 17/13 A2992 RMK AO2 SLP128 T01670133 =
2018-06-20 05:53 METAR KPOU 200953Z AUTO 00000KT 10SM CLR 16/13 A2991 RMK AO2 SLP126 T01560133 =
2018-06-20 04:53 METAR KPOU 200853Z AUTO 00000KT 10SM CLR 15/13 A2990 RMK AO2 SLP119 T01500128
                 51007 =
2018-06-20 03:53 METAR KPOU 200753Z AUTO 00000KT 10SM CLR 16/13 A2988 RMK AO2 SLP114 T01560133 =
2018-06-20 02:53 METAR KPOU 200653Z AUTO 00000KT 10SM CLR 15/13 A2989 RMK AO2 SLP117 T01500128 =
2018-06-20 01:53 METAR KPOU 200553Z AUTO 00000KT 10SM CLR 16/13 A2987 RMK AO2 SLP112 T01560133
                 10250 20144 58002 =
2018-06-20 00:53 METAR KPOU 200453Z AUTO 00000KT 10SM CLR 16/13 A2988 RMK AO2 SLP115 T01560128
                 402940156 =
2018-06-19 23:53 METAR KPOU 200353Z AUTO 00000KT 10SM CLR 17/14 A2988 RMK AO2 SLP114 T01720139 =
2018-06-19 22:53 METAR KPOU 200253Z AUTO 02003KT 10SM CLR 18/14 A2988 RMK AO2 SLP115 T01780139
                 51016 =
2018-06-19 21:53 METAR KPOU 200153Z AUTO 00000KT 10SM CLR 18/14 A2987 RMK AO2 SLP112 T01830139 =
2018-06-19 20:53 METAR KPOU 200053Z 00000KT 10SM CLR 22/13 A2985 RMK AO2 SLP103 T02170128 =
2018-06-19 19:53 METAR KPOU 192353Z 03004KT 10SM CLR 25/12 A2983 RMK AO2 SLP098 T02500117 10294
                 20250 53011 =
2018-06-19 18:53 METAR KPOU 192253Z 03011KT 10SM CLR 27/11 A2982 RMK AO2 SLP092 T02670111 =
2018-06-19 17:53 METAR KPOU 192153Z 03009KT 10SM CLR 28/11 A2981 RMK AO2 SLP090 T02830106 =
2018-06-19 16:53 METAR KPOU 192053Z 36009G14KT 10SM CLR 28/09 A2980 RMK AO2 SLP087 T02830089
                 53002 =
2018-06-19 15:53 METAR KPOU 191953Z 34009G16KT 10SM CLR 29/08 A2980 RMK AO2 SLP086 T02890083 =
2018-06-19 14:53 METAR KPOU 191853Z 35008G18KT 10SM CLR 29/09 A2980 RMK AO2 SLP086 T02890094 =
2018-06-19 13:53 METAR KPOU 191753Z 01007KT 10SM CLR 28/12 A2980 RMK AO2 SLP086 T02830117 10289
                 20233 58005 =
2018-06-19 12:53 METAR KPOU 191653Z 34010G15KT 10SM CLR 28/13 A2980 RMK AO2 SLP088 T02830133 =
2018-06-19 11:53 METAR KPOU 191553Z 02012KT 10SM CLR 27/15 A2981 RMK AO2 SLP090 T02670150 =
2018-06-19 10:53 METAR KPOU 191453Z 36011G19KT 10SM CLR 26/14 A2981 RMK AO2 SLP091 T02560144
                 51010 =

Support USWX by starting your Amazon purchase here.